Hourly Data Report for September 07, 2017

All times are specified in Local Standard Time (LST). Add 1 hour to adjust for Daylight Saving Time where and when it is observed.

POND INLET A
NUNAVUT

72°41'22.000" N
77°58'08.000" W
61.60 m
2403206
71095
YIO

Download Data

Hourly Data (September 2017)
Hourly Data Report for September 7, 2017
Temp Definition
°C
Dew Point Temp Definition
°C
Rel Hum Definition
%
Wind Dir Definition
10's deg

Wind Spd Definition
km/h
Visibility Definition
km
Stn Press Definition
kPa
Hmdx Definition


Wind Chill Definition


Weather Definition


TIME
00:00 Legend Double Dagger 0.0 -5.0 69 26 17 16.1 100.58   -5 LegendNANA
01:00 Legend Double Dagger 0.0 -5.5 67 28 13 16.1 100.61   -4 LegendNANA
02:00 Legend Double Dagger 0.1 -5.7 65 26 13 16.1 100.62     LegendNANA
03:00 Legend Double Dagger -0.3 -5.4 69 21 11 16.1 100.63   -4 LegendNANA
04:00 Legend Double Dagger -0.8 -5.5 71 19 11 16.1 100.62   -5 LegendNANA
05:00 Legend Double Dagger -1.2 -5.3 74 19 11 16.1 100.63   -5 LegendNANA
06:00 Legend Double Dagger -0.5 -4.4 75 19 11 16.1 100.61   -4 LegendNANA
07:00 Legend Double Dagger 0.0 -4.6 71 19 13 16.1 100.58   -4 LegendNANA
08:00 Legend Double Dagger 0.4 -4.9 68 21 11 16.1 100.55     LegendNANA
09:00 Legend Double Dagger 0.7 -5.3 64 23 13 16.1 100.51     LegendNANA
10:00 Legend Double Dagger 0.8 -5.7 62 21 17 16.1 100.49     LegendNANA
11:00 Legend Double Dagger 0.9 -6.2 59 22 17 16.1 100.47     LegendNANA
12:00 Legend Double Dagger 0.8 -5.6 63 22 21 16.1 100.44     LegendNANA
13:00 Legend Double Dagger 0.9 -5.2 64 25 21 16.1 100.40     LegendNANA
14:00 Legend Double Dagger 1.0 -5.8 61 25 17 16.1 100.34     LegendNANA
15:00 Legend Double Dagger 1.0 -5.8 60 25 18 16.1 100.29     LegendNANA
16:00 Legend Double Dagger 0.7 -4.2 70 29 8 16.1 100.23     LegendNANA
17:00 Legend Double Dagger -0.3 -3.3 80 34 8 12.9 100.20   -3 Snow
18:00 Legend Double Dagger -0.8 -3.0 85 33 4 3.2 100.15   -2 Snow
19:00 Legend Double Dagger -1.1 -2.2 92 LegendMM 4 1.2 100.10   -2 Snow
20:00 Legend Double Dagger -1.3 -3.0 88   0 2.0 100.03     Snow
21:00 Legend Double Dagger -1.4 -2.5 92   0 2.8 99.95     Snow
22:00 Legend Double Dagger -1.7 -2.5 94 6 5 11.3 99.85   -4 Snow
23:00 Legend Double Dagger -1.7 -2.4 95 8 8 16.1 99.76   -5 Snow

Notes on Data Quality.

Legend

  • E = Estimated
  • M = Missing
  • NA = Not Available
  • ‡ = Partner data that is not subject to review by the National Climate Archives
Date modified: